GFSCGP_250_spd_000.txt.gz
Wind_Speed
77 69 59 64 69 69 64 58 57 61 61 60 47 39 44 48 51 55 57 64 70 63 70 59 54 53 53 49 47 44 41 41 36 30 32 31 27 26 26 24 29 28 31 32
82 67 68 69 69 64 59 57 59 62 60 51 39 43 46 52 55 58 61 60 61 70 57 55 54 51 49 47 44 40 38 35 28 30 29 25 24 23 23 24 24 25 32 31
72 71 72 70 66 63 59 57 58 53 46 37 39 46 51 54 57 58 54 57 59 47 49 50 50 45 46 42 38 37 35 28 27 28 24 20 20 22 23 19 21 27 32 27
64 69 69 70 65 61 59 51 48 37 39 47 47 52 52 52 52 52 53 40 40 45 44 45 43 41 40 36 34 32 27 26 27 23 18 16 18 19 19 23 22 26 28 21
50 53 50 62 46 54 43 52 44 41 49 51 52 52 52 50 50 49 36 36 37 34 38 42 34 36 34 31 30 24 24 25 22 18 14 12 13 13 14 17 25 29 25 23
49 54 53 45 46 41 47 40 42 43 44 47 48 49 53 48 44 42 37 29 28 31 34 35 33 31 28 25 21 22 24 25 19 14 9 9 8 11 18 23 31 32 24 20
55 53 49 50 50 50 51 44 43 48 48 53 51 42 49 39 38 35 29 26 23 27 31 28 27 26 22 19 20 23 24 22 15 8 5 5 5 15 18 24 31 31 21 18
61 61 55 56 53 57 52 53 51 52 52 51 46 39 42 34 35 25 27 19 19 25 26 25 26 22 18 19 21 21 22 17 10 6 7 5 7 16 17 24 30 26 20 18
62 61 64 60 64 63 60 51 52 53 49 45 46 47 40 32 26 24 18 16 19 24 28 23 23 18 18 19 20 19 19 14 9 7 8 2 9 13 18 24 30 24 19 17
72 70 69 73 70 62 56 58 54 46 41 43 47 41 32 25 19 18 12 16 17 21 26 22 22 16 17 16 19 18 19 14 10 7 8 3 10 14 14 23 32 23 19 16
76 75 77 75 61 57 59 56 52 49 42 37 35 28 26 23 19 13 13 14 17 18 24 22 22 16 15 15 18 17 18 13 9 4 8 9 11 16 16 21 28 23 16 16
68 76 82 69 65 67 66 61 54 50 40 43 38 28 29 21 19 9 8 12 17 20 25 24 21 15 17 16 17 18 17 14 8 7 13 5 5 14 18 22 26 17 16 15
77 68 75 76 76 74 67 51 44 41 41 29 24 33 24 23 16 9 6 9 16 19 21 25 20 16 17 17 17 18 16 13 9 8 15 6 4 11 18 20 27 16 13 11
76 69 62 58 55 55 49 44 33 28 29 31 35 28 24 23 16 9 6 7 17 16 21 24 24 18 19 18 17 16 15 13 8 8 16 7 5 7 15 17 22 20 8 11
78 71 61 57 53 49 44 37 31 32 33 32 36 27 24 23 15 10 4 8 13 18 20 24 25 23 19 16 16 15 14 16 6 9 17 11 8 4 8 14 21 25 12 9
80 68 65 61 56 48 39 36 30 34 34 37 35 28 26 22 13 9 5 6 13 17 19 21 24 28 20 18 17 16 15 16 8 4 15 13 13 8 2 7 14 19 23 10
79 73 69 60 57 54 43 36 31 31 31 35 31 33 31 21 13 8 6 7 11 15 19 20 22 27 24 18 16 18 17 14 12 6 9 15 13 12 8 4 9 10 17 23
79 75 68 62 62 56 39 39 35 33 35 37 38 39 33 24 16 9 8 11 11 13 16 20 22 23 27 21 15 14 15 15 13 11 5 12 17 14 10 9 9 7 9 15
83 79 72 68 63 54 50 42 38 34 34 36 40 41 35 28 20 16 11 11 12 11 15 18 20 21 24 24 15 14 11 13 12 12 9 7 17 16 14 14 15 10 8 10
91 85 81 72 71 59 55 55 49 47 38 38 43 46 41 33 24 23 14 12 14 9 13 17 18 19 21 21 19 13 11 10 11 9 10 6 2 17 18 15 11 11 10 12
96 93 84 78 76 70 69 62 60 51 43 49 49 51 47 37 33 27 17 13 16 12 12 14 16 17 19 19 20 14 11 10 9 8 6 6 4 3 8 18 18 17 15 14
99 95 90 85 83 78 74 70 69 59 56 50 52 53 49 44 39 30 22 16 18 14 12 12 15 15 17 19 17 19 12 10 6 7 6 4 4 3 3 3 7 11 10 10
101 98 93 90 86 82 78 73 67 63 60 54 45 50 50 47 39 33 25 21 19 21 14 10 13 14 14 17 18 16 17 10 5 4 5 5 4 4 4 4 5 3 3 5
102 100 98 92 90 85 82 74 68 65 61 54 51 47 48 45 42 34 27 22 21 21 17 17 13 13 15 16 18 17 14 15 10 6 5 6 7 6 6 7 6 6 7 9
101 100 98 95 91 87 82 77 75 67 61 56 53 52 49 46 46 39 32 27 24 23 22 20 16 15 16 17 17 18 15 14 13 10 8 7 7 7 9 8 9 10 10 10
101 93 99 97 94 89 85 81 79 71 62 60 58 56 54 54 51 46 34 29 27 27 25 23 20 17 18 17 18 20 18 15 14 12 13 11 11 13 13 12 10 10 11 14

GFSCGP_250_spd_003.txt.gz
Wind_Speed
88 89 80 75 73 72 72 66 60 67 68 61 59 54 57 57 56 52 52 50 54 60 62 64 71 69 58 56 53 48 47 43 39 34 33 34 33 29 28 28 29 28 34 37
86 75 77 80 81 78 77 69 60 62 66 55 56 53 54 50 46 43 47 50 55 59 65 71 74 60 55 55 46 44 42 37 33 29 32 31 29 29 26 26 28 31 34 36
68 64 80 77 76 72 70 65 62 62 64 52 55 53 53 43 39 46 48 50 55 59 67 69 61 56 56 47 43 42 38 31 28 29 30 25 26 24 22 23 25 23 30 32
57 56 57 59 61 65 58 61 64 61 64 55 53 49 41 39 43 48 49 50 55 58 62 61 54 54 46 44 40 36 29 27 28 28 26 22 22 19 20 14 23 31 35 28
50 61 55 53 56 60 55 64 65 65 58 54 52 39 37 39 46 46 46 50 50 55 53 52 45 47 45 38 35 28 27 27 27 27 21 18 14 13 17 22 27 32 31 23
61 61 58 46 49 56 59 63 61 55 47 37 50 35 37 38 41 43 46 43 43 46 46 41 43 44 36 33 28 25 26 26 26 21 14 11 9 14 21 25 30 30 23 21
55 52 45 41 38 36 37 35 34 29 30 39 38 31 36 38 42 43 40 38 35 40 35 40 51 36 30 28 25 25 25 24 23 15 10 8 9 16 20 23 31 24 19 21
55 57 47 43 38 39 36 36 34 36 36 45 31 34 36 40 37 43 35 29 31 30 32 31 31 29 27 21 20 21 22 21 19 13 9 6 8 18 21 22 29 20 19 19
55 54 60 58 52 54 44 31 39 40 40 30 28 41 42 37 40 39 28 27 28 27 33 27 27 24 21 17 17 21 20 19 16 13 6 4 9 18 20 23 29 19 20 17
66 64 69 69 64 52 45 47 45 32 31 32 36 37 34 27 33 25 23 25 21 25 23 22 19 18 15 14 17 20 20 18 14 9 4 6 10 17 21 26 23 19 21 16
70 66 72 69 54 58 57 46 40 39 45 43 41 36 30 29 29 21 23 18 17 18 14 19 14 14 13 12 15 19 20 17 15 7 8 6 11 18 21 29 18 20 23 17
75 71 70 66 62 65 60 55 52 49 44 42 41 33 28 33 26 24 16 13 14 10 15 18 15 15 12 11 14 18 19 16 15 5 8 2 8 15 20 29 18 21 24 23
80 70 69 62 65 60 56 54 50 49 45 37 33 32 29 27 26 21 13 12 9 8 12 16 22 13 12 10 15 16 17 16 13 4 11 5 6 13 20 29 28 16 21 24
80 71 66 54 46 59 57 50 46 48 42 37 35 35 28 30 28 25 16 12 6 8 12 16 21 13 12 11 14 14 15 15 12 3 11 7 1 9 16 24 31 21 20 19
80 73 69 63 58 51 52 57 56 46 39 35 36 28 31 33 31 26 17 11 3 6 11 15 18 19 13 11 13 15 14 14 10 5 9 7 4 2 10 16 28 31 20 18
82 78 72 67 61 53 45 43 45 46 46 41 38 34 34 33 31 26 18 11 4 6 10 15 16 20 14 10 11 15 14 14 10 8 3 10 6 4 5 10 15 23 31 19
87 82 76 70 63 59 51 33 27 31 31 33 33 37 38 35 31 25 20 14 5 3 9 12 17 17 17 11 9 10 11 13 13 8 5 5 6 7 10 8 11 13 19 27
90 86 76 73 68 63 42 41 33 32 35 33 37 38 41 36 31 23 23 17 6 3 7 11 15 17 17 15 10 9 9 11 12 12 7 3 10 7 8 8 10 14 14 20
92 85 78 76 70 58 53 51 42 37 38 42 43 45 47 39 31 25 26 20 8 1 4 9 12 15 18 18 14 10 9 10 12 12 13 12 1 11 8 8 11 11 11 13
94 88 82 78 74 62 61 56 48 47 46 44 42 44 49 40 32 32 27 19 12 5 3 7 10 12 17 17 20 11 11 8 9 11 11 12 9 5 10 10 10 10 11 12
97 92 85 84 78 70 65 62 59 55 48 42 42 41 42 40 42 37 25 20 17 10 5 6 8 11 14 17 16 18 10 10 7 9 9 10 11 9 5 2 6 9 10 10
100 95 91 89 84 76 70 66 64 56 54 47 40 39 39 45 46 32 28 22 22 14 7 7 5 9 11 14 15 16 15 11 7 6 9 9 8 9 8 7 4 2 3 3
99 101 95 92 87 78 73 69 64 59 56 50 45 42 43 44 43 39 34 27 26 20 9 6 8 5 10 11 13 14 14 13 10 6 6 8 9 8 6 6 7 7 5 5
99 99 98 92 89 81 75 71 68 64 59 55 52 46 44 45 45 40 35 31 29 28 16 7 9 10 8 10 11 11 12 13 12 9 6 5 6 7 10 9 6 5 6 5
96 97 98 96 91 87 81 77 71 67 62 60 54 50 46 45 45 44 39 34 30 31 26 15 12 13 12 11 10 12 11 12 12 11 9 6 6 4 4 7 8 7 6 7
95 96 99 98 96 89 84 78 72 69 67 63 58 55 50 49 48 46 45 41 36 32 30 21 15 16 16 15 13 11 11 10 10 9 11 9 7 7 8 8 5 5 7 9

GFSCGP_250_spd_006.txt.gz
Wind_Speed
89 91 81 83 87 87 87 80 74 74 81 80 65 57 62 62 59 62 61 58 58 59 49 53 53 53 61 67 62 59 58 54 47 41 36 36 35 30 26 26 23 23 23 26
88 75 78 85 86 85 81 79 73 72 79 74 66 60 59 60 58 57 55 56 58 52 50 52 51 55 62 63 57 54 57 47 40 34 35 34 30 24 22 22 18 21 28 34
82 67 80 77 78 78 77 74 70 71 81 70 61 55 58 59 54 55 54 57 56 48 49 47 51 55 62 58 54 57 52 41 37 34 34 31 24 20 17 17 23 29 34 36
80 77 75 68 69 73 70 72 73 73 76 64 57 54 55 57 53 51 55 54 48 45 44 48 52 57 56 52 53 57 44 35 33 32 32 24 18 13 18 24 28 30 36 33
63 61 56 56 55 71 55 71 68 69 66 58 49 52 60 54 51 53 49 47 42 39 41 48 53 53 49 50 55 44 37 33 31 31 25 17 14 13 20 25 28 33 35 30
72 70 72 60 61 60 55 50 44 43 43 45 50 50 58 50 40 42 40 36 34 37 44 49 51 48 42 48 45 38 32 29 29 26 20 15 12 15 23 29 28 34 32 28
69 65 62 57 51 50 42 32 23 22 37 43 53 45 47 37 39 35 32 29 33 41 42 43 45 44 46 49 38 34 28 25 26 20 16 12 9 18 25 28 29 34 27 22
74 66 57 53 51 51 41 38 32 35 43 48 49 22 36 26 31 28 27 32 35 37 34 41 41 39 40 44 37 30 23 22 22 15 13 6 11 20 26 31 31 23 20 14
80 71 63 57 57 56 45 29 37 38 42 43 22 23 22 30 27 24 24 28 30 27 34 38 35 36 44 35 30 23 19 20 16 12 6 4 13 22 27 33 21 22 19 11
84 75 66 64 61 58 45 42 37 36 33 21 16 25 32 28 25 25 25 21 22 26 31 30 31 39 32 27 24 18 17 17 12 7 2 7 14 21 28 26 20 24 19 11
85 76 72 67 50 52 47 39 30 26 23 18 25 33 30 29 26 29 23 19 19 25 25 24 29 25 24 23 22 18 14 13 10 3 6 6 12 20 31 26 22 26 22 15
83 77 74 66 57 54 51 43 37 26 21 27 34 39 33 33 33 27 18 16 19 20 18 17 19 22 20 20 17 14 12 12 7 2 6 3 13 20 30 26 21 23 26 22
85 76 75 70 59 48 43 48 40 37 39 36 34 33 34 34 31 21 14 19 19 13 15 14 16 18 17 16 15 10 12 10 7 4 7 4 9 17 24 33 19 18 24 23
81 73 70 64 53 46 47 51 48 41 38 38 36 35 31 28 23 17 18 21 16 12 12 12 13 17 15 14 13 8 11 9 8 4 8 2 4 10 17 23 34 21 16 22
78 75 71 67 60 54 50 54 50 44 43 37 42 37 30 30 27 19 24 20 14 10 10 10 11 15 17 14 14 8 8 10 8 5 8 5 1 5 12 18 25 30 19 16
81 78 72 68 66 60 52 51 54 52 53 51 50 42 34 32 26 25 27 23 16 9 10 10 8 13 17 14 14 11 8 9 9 4 2 6 4 2 10 13 16 24 25 18
87 81 77 71 70 64 55 47 50 55 52 50 47 42 36 30 32 30 29 26 20 10 9 9 7 12 16 16 13 11 8 8 9 6 3 4 6 1 4 8 13 18 22 22
91 84 78 76 70 63 58 52 48 45 46 44 47 42 39 36 36 33 31 27 21 12 9 8 6 10 15 16 13 11 8 8 8 11 6 3 7 5 1 4 10 12 19 22
94 87 81 80 71 67 61 55 48 44 42 41 39 33 31 31 30 33 31 27 20 13 10 5 6 8 12 15 14 10 9 8 8 12 14 10 5 4 3 1 5 9 15 18
94 91 86 82 76 70 63 56 52 48 44 38 34 30 27 28 32 35 32 28 19 14 8 4 4 6 9 13 15 14 11 9 8 10 13 15 13 8 1 3 2 5 9 12
97 94 90 87 81 73 66 62 60 53 46 40 35 30 31 36 39 32 27 27 20 14 11 6 3 4 6 11 14 15 13 10 10 9 11 13 15 16 12 7 5 5 7 10
99 96 92 90 85 80 72 69 60 48 46 41 37 33 36 43 43 36 30 27 23 16 11 9 4 3 4 7 12 14 16 12 9 9 9 11 12 12 13 13 12 9 11 12
101 97 95 92 87 77 74 65 58 55 51 48 43 39 38 46 48 39 34 32 25 20 15 15 8 5 2 4 8 11 13 15 11 8 7 9 10 10 10 10 11 11 9 9
100 99 97 94 87 81 75 68 63 60 56 54 50 46 43 46 49 43 39 36 31 24 21 18 16 10 5 3 5 8 11 12 13 11 7 4 7 7 9 9 8 6 6 6
102 99 97 93 89 86 78 72 67 63 62 59 54 51 49 47 44 46 43 40 38 33 27 24 21 18 12 8 5 5 7 10 10 11 11 7 3 1 3 5 5 4 5 3
97 98 97 95 92 88 82 76 70 66 65 64 60 56 51 50 47 44 44 44 41 40 34 29 24 23 19 13 11 6 6 6 8 9 10 11 10 6 2 2 2 2 3 3

GFSCGP_250_spd_009.txt.gz
Wind_Speed
86 91 76 76 80 82 85 87 83 79 79 82 76 69 65 69 70 68 65 61 60 56 57 56 58 58 58 53 51 57 55 54 56 57 51 44 40 37 32 27 22 20 23 25
94 78 67 79 81 81 80 78 75 76 75 77 77 72 65 65 66 63 61 61 57 55 56 55 54 58 51 47 52 55 52 53 56 53 44 40 38 34 28 21 20 24 26 30
82 58 82 82 79 75 70 66 71 76 78 76 74 68 61 62 63 59 60 59 55 55 53 52 56 47 44 45 52 50 53 54 53 45 43 38 35 27 22 20 22 24 28 32
82 73 75 74 66 65 62 72 73 69 67 63 68 54 57 62 57 57 58 56 54 52 50 51 42 38 42 46 49 50 54 52 46 41 36 35 26 23 18 23 26 28 33 35
69 67 63 63 56 64 64 73 71 64 59 56 55 39 53 56 56 59 54 50 51 49 47 38 34 37 41 44 47 48 50 50 43 38 32 29 22 19 20 24 28 32 34 29
82 76 77 65 71 67 70 65 57 53 52 43 41 34 50 58 55 50 49 50 47 45 34 31 34 38 41 43 45 45 46 45 36 32 30 24 20 16 22 27 33 27 26 24
88 77 71 65 61 59 53 49 48 45 40 30 37 33 53 52 43 44 46 44 43 30 26 30 32 38 39 41 43 45 42 37 31 29 26 20 13 17 23 29 25 25 26 19
94 82 69 62 57 54 52 52 45 39 31 34 35 35 51 40 36 40 40 34 24 21 26 28 32 35 37 40 42 41 38 32 30 28 21 12 12 19 26 21 23 26 19 11
101 88 79 70 66 62 54 43 46 32 22 36 31 38 44 33 35 34 25 18 19 22 26 27 28 32 38 37 39 36 32 29 27 22 13 7 12 24 25 17 20 22 16 9
100 91 77 74 72 63 53 49 30 23 26 31 37 42 43 28 26 20 15 18 19 22 26 27 25 33 33 36 38 34 28 25 22 17 5 5 14 25 22 16 20 21 13 11
103 94 86 79 61 57 50 37 31 24 31 40 41 37 38 28 19 14 16 19 23 22 23 21 26 28 32 35 32 26 24 21 18 11 2 6 15 27 23 15 20 21 16 13
108 97 88 70 67 62 55 43 35 30 39 42 38 38 30 17 19 18 20 20 22 20 19 19 26 28 27 28 25 24 21 18 14 6 5 4 15 20 28 17 17 18 17 16
111 103 89 80 68 62 49 40 35 29 36 34 35 38 21 25 24 22 23 20 22 16 14 21 20 25 23 25 23 22 20 16 10 3 6 3 10 13 22 27 14 17 18 16
108 96 88 77 62 57 50 43 39 33 36 35 34 31 28 30 28 23 20 20 22 15 16 15 19 21 21 23 22 20 19 14 6 3 9 4 4 10 15 23 23 13 16 18
103 93 87 75 64 60 53 49 44 37 37 35 40 32 34 31 24 22 17 21 21 15 15 11 17 17 18 20 20 17 15 12 6 4 11 7 3 2 10 15 22 15 11 16
103 94 87 79 66 63 56 50 43 44 43 44 43 37 32 30 28 23 17 27 21 15 11 11 14 15 16 19 20 14 13 11 8 3 7 8 6 2 4 10 17 18 14 14
103 95 88 81 67 66 60 53 47 48 45 46 45 43 37 33 27 26 17 31 21 15 10 9 9 13 15 18 20 14 12 9 9 2 4 8 8 4 1 6 13 18 17 14
99 93 88 82 71 65 64 59 53 53 52 52 50 40 35 35 33 24 19 32 25 17 11 6 8 11 13 16 20 14 12 9 9 6 2 5 7 5 3 4 9 15 18 17
96 91 88 82 72 68 69 62 56 53 56 54 53 45 38 35 29 30 25 33 25 20 13 8 7 8 10 13 18 17 13 9 9 9 7 3 8 8 4 2 7 12 16 19
94 91 89 83 77 71 63 62 59 55 59 57 53 47 41 36 28 25 31 32 26 21 16 10 4 5 8 10 14 17 14 9 10 9 10 9 5 6 6 4 4 7 14 20
97 93 91 85 80 72 68 67 64 59 52 51 48 44 42 35 29 24 34 32 27 24 17 12 5 2 6 8 11 14 16 11 10 9 9 9 11 13 13 8 5 6 13 18
98 95 93 88 82 78 73 65 59 53 52 46 39 36 38 35 29 28 34 33 31 25 19 15 8 1 4 6 8 12 15 16 11 8 9 9 8 10 14 14 11 10 13 13
99 97 94 89 81 76 71 63 59 58 54 49 39 42 41 39 34 33 35 36 31 27 20 15 10 4 3 4 7 9 12 15 16 13 7 8 9 8 7 9 14 13 12 12
99 98 94 90 85 79 72 68 64 62 58 52 44 46 44 40 38 38 38 37 35 29 24 20 14 8 5 4 3 6 9 11 13 16 16 10 8 8 8 8 7 8 10 12
100 97 95 93 88 81 76 72 67 65 61 55 49 49 48 44 41 39 42 40 37 33 28 26 20 16 11 8 4 3 6 8 10 11 14 17 15 7 6 8 8 8 6 5
97 98 96 93 88 81 78 75 72 68 64 60 55 52 51 49 46 44 41 40 40 38 35 30 27 22 19 16 10 4 2 4 5 8 10 13 14 15 10 9 4 6 6 5

GFSCGP_250_spd_012.txt.gz
Wind_Speed
97 103 101 75 77 84 90 88 81 81 80 86 82 79 74 79 70 69 67 56 59 64 65 64 61 62 60 59 60 63 63 55 56 51 50 54 54 49 47 46 40 34 28 31
103 102 75 79 88 85 85 87 80 72 78 85 85 81 73 69 63 66 61 59 60 60 64 60 60 60 57 58 60 62 54 52 51 47 51 55 48 46 44 37 31 28 31 35
98 74 82 83 86 86 82 78 72 76 85 84 75 71 62 62 61 63 61 59 61 61 60 57 58 56 55 56 59 56 49 50 45 48 52 47 43 43 39 29 26 29 35 38
98 78 84 86 79 75 70 67 70 76 75 65 74 53 52 58 57 55 56 56 60 59 54 56 55 52 53 56 58 47 47 42 44 51 45 39 41 38 32 26 29 33 39 35
86 88 86 77 64 71 61 71 76 75 68 59 56 53 51 54 53 56 52 53 52 50 53 54 48 49 52 54 45 44 41 38 46 47 37 37 38 32 27 27 32 36 34 28
97 96 89 71 73 69 73 72 74 67 57 49 45 58 45 48 52 50 49 49 47 50 50 48 45 48 50 41 42 40 35 43 45 39 35 36 32 26 22 29 32 31 29 25
105 100 88 82 79 75 71 65 58 48 38 31 42 36 41 46 44 44 43 39 39 43 42 42 43 43 34 38 40 32 39 43 42 36 33 32 24 16 24 27 26 28 24 12
116 108 93 83 76 66 61 55 45 38 35 30 30 30 37 42 39 34 32 29 34 34 36 38 35 29 32 37 29 35 39 42 39 32 30 24 11 18 23 19 23 25 13 7
120 110 99 91 80 73 64 51 48 41 34 26 22 33 37 35 35 28 21 23 24 29 28 21 24 27 34 29 31 37 43 40 30 27 23 9 11 18 17 18 25 18 6 5
101 107 100 91 88 82 70 63 57 45 22 22 26 35 34 35 33 20 22 23 23 21 19 17 22 29 28 24 33 39 38 27 25 23 16 2 9 18 14 17 21 13 4 8
87 100 100 98 90 79 76 66 53 33 23 22 31 34 34 29 24 24 23 19 18 19 16 20 24 27 21 29 33 35 28 22 22 21 8 3 7 16 19 13 17 12 4 10
88 85 102 95 86 83 77 70 54 37 35 34 31 30 30 30 26 22 20 19 18 19 23 25 30 17 25 29 32 30 21 19 23 18 9 4 5 11 19 12 10 13 6 7
89 86 94 96 99 92 81 69 51 41 35 34 33 35 34 33 30 23 21 21 18 22 25 26 22 18 26 27 28 24 17 16 20 12 11 7 3 9 14 14 8 9 7 7
89 94 87 102 89 83 78 67 50 38 35 41 41 39 33 36 28 24 21 20 22 26 21 26 14 20 23 25 25 22 15 13 15 8 11 9 6 7 12 16 6 7 9 8
86 94 96 100 94 86 78 70 53 39 42 44 44 42 39 34 30 23 23 22 25 22 18 20 16 19 20 22 23 19 13 10 12 10 10 11 9 8 9 12 12 3 8 10
80 97 100 99 90 84 79 63 51 48 51 50 46 42 34 38 30 20 17 22 24 17 20 16 15 17 17 19 21 16 12 10 11 10 8 12 13 9 8 7 11 4 3 4
78 96 100 99 91 83 76 68 54 51 52 49 45 41 35 31 19 18 21 21 22 20 21 16 13 15 14 16 19 17 13 10 11 11 6 6 10 11 6 5 8 9 2 3
76 95 102 100 92 87 77 64 58 56 50 46 40 31 31 28 24 21 22 23 23 17 23 15 12 13 11 13 16 18 14 10 11 11 4 5 6 7 6 3 6 10 7 6
80 98 104 97 89 86 76 65 58 56 53 48 42 38 38 32 28 26 26 23 24 22 22 13 13 12 9 11 14 16 13 10 11 12 7 3 7 6 4 2 4 7 9 10
85 101 104 97 93 85 75 65 61 60 59 49 45 38 34 34 36 30 23 19 26 26 22 15 13 11 7 9 12 15 14 10 11 12 12 8 1 5 7 6 3 3 7 10
92 104 101 97 91 82 74 68 68 63 55 47 47 42 41 42 40 35 26 19 30 29 24 18 15 7 4 6 10 12 14 12 11 12 12 11 8 3 6 8 6 7 8 12
96 106 102 97 91 82 74 68 63 54 55 49 50 51 52 48 43 35 25 25 35 31 24 20 15 7 2 3 7 10 13 16 14 10 12 12 10 9 5 6 8 11 10 13
98 105 102 97 86 80 72 66 65 65 60 54 52 54 54 49 44 37 31 33 39 33 27 24 16 10 5 1 5 7 10 15 17 16 11 10 12 10 10 8 7 14 12 11
97 103 101 96 89 82 74 70 70 68 62 58 54 52 51 48 45 41 38 41 42 37 31 26 19 15 10 5 1 4 6 10 13 16 16 12 10 11 13 11 8 6 9 11
97 101 101 96 91 85 80 75 74 71 65 60 56 50 45 46 44 44 44 47 45 40 35 30 26 21 14 10 4 1 2 5 9 11 13 14 12 10 8 6 9 8 5 5
96 99 99 96 92 87 82 78 76 72 66 63 59 52 46 46 48 46 49 52 48 44 40 35 30 26 20 15 10 6 4 2 3 7 10 10 11 13 14 12 8 8 7 6

GFSCGP_250_spd_015.txt.gz
Wind_Speed
103 108 102 94 91 88 90 98 95 93 87 100 99 94 83 88 87 85 76 67 64 69 66 65 63 65 64 65 66 64 65 65 64 63 66 63 59 56 54 49 48 47 43 38
107 102 82 83 88 95 96 97 88 81 81 94 93 91 84 84 82 75 74 69 64 68 65 66 67 66 64 64 64 61 62 62 61 62 61 59 55 52 48 45 46 44 39 40
105 84 82 91 86 91 87 86 79 84 84 90 87 83 70 69 73 72 70 66 64 66 64 65 67 64 63 62 60 59 59 57 59 57 57 51 48 48 45 44 42 41 40 43
100 84 81 90 85 79 78 73 76 77 78 78 82 66 61 64 65 64 66 64 62 60 62 63 59 59 58 58 53 56 54 56 54 55 51 45 48 45 43 42 38 37 43 46
92 91 86 94 74 82 66 75 74 72 70 72 68 62 54 64 59 60 61 59 57 55 57 54 55 53 51 48 51 48 51 49 50 49 44 45 47 41 39 34 34 39 41 35
101 100 98 86 81 80 73 72 72 68 68 59 55 53 47 55 51 53 54 54 54 54 53 51 49 49 45 46 43 45 45 44 46 41 41 46 38 35 29 31 35 35 31 35
106 106 101 95 89 80 78 74 69 65 58 45 45 48 45 45 44 45 47 46 47 47 46 44 41 37 36 36 37 41 39 41 37 40 43 34 31 25 27 31 32 29 32 20
116 114 106 94 88 78 77 72 66 55 52 43 46 41 38 37 37 40 39 38 37 35 35 32 28 28 30 30 33 35 37 33 37 42 33 27 22 20 26 28 26 27 24 13
117 113 109 105 95 88 77 81 57 64 53 45 36 29 40 34 34 34 28 26 26 26 21 18 21 24 21 29 30 33 29 33 39 33 24 24 14 18 22 24 23 25 15 7
107 114 111 105 98 93 89 67 79 65 55 41 32 32 42 30 31 25 16 16 16 13 16 18 20 18 21 26 31 25 30 35 36 24 21 17 14 14 20 24 19 21 11 3
87 88 98 107 104 93 86 86 75 68 58 45 32 42 33 29 25 19 14 20 17 20 19 18 16 16 22 29 22 26 31 35 29 19 19 13 11 11 18 25 19 18 8 4
83 78 82 92 101 97 89 85 74 69 56 37 36 38 28 28 24 12 22 21 21 16 18 15 16 20 24 22 22 27 33 31 24 16 17 13 8 10 16 23 19 17 8 3
82 72 75 81 82 89 95 87 80 74 61 47 41 46 31 26 18 14 24 23 22 18 19 16 18 19 21 18 23 28 31 26 19 14 14 14 7 7 13 20 21 15 10 3
75 75 77 79 71 81 87 86 79 74 64 48 47 38 33 26 22 19 21 23 22 15 14 20 18 18 17 19 23 27 27 20 15 11 10 13 12 8 12 17 20 11 9 3
64 75 78 76 77 83 80 82 77 73 60 50 49 40 35 27 29 31 26 21 17 18 20 16 17 16 14 20 22 24 23 17 10 10 8 14 15 9 11 14 16 10 6 2
61 78 83 78 79 78 80 85 83 77 63 51 53 42 38 31 29 33 29 22 20 20 21 18 16 11 14 19 21 22 19 13 9 9 8 10 15 10 12 11 13 15 8 5
58 71 86 85 76 73 76 78 78 75 60 56 56 45 40 32 31 28 29 25 22 21 17 15 11 11 15 18 20 20 15 9 8 9 7 6 9 7 8 7 12 15 9 3
57 69 83 88 76 73 78 82 80 74 66 62 62 43 31 26 33 36 30 23 20 21 15 13 10 12 13 14 17 18 11 8 8 11 8 5 5 3 2 5 9 13 6 2
57 69 84 84 81 76 81 84 84 72 64 61 52 32 29 38 38 38 29 23 21 21 16 12 12 10 11 12 14 15 9 6 9 12 11 3 6 7 2 3 6 10 2 7
61 75 82 84 83 81 85 85 77 68 61 64 52 42 43 40 39 35 29 23 25 24 16 15 14 10 10 10 10 12 8 5 10 12 12 8 1 6 7 4 3 7 6 7
63 69 82 90 89 84 87 87 78 75 69 68 49 43 43 40 36 33 28 29 27 25 15 19 16 10 8 8 7 7 7 5 10 12 10 11 9 3 5 7 1 4 6 8
63 72 85 92 88 87 88 90 82 68 71 61 47 46 44 44 44 36 34 33 27 23 17 22 18 10 9 5 4 4 6 9 10 11 11 10 11 10 5 7 7 4 6 8
65 76 87 93 99 98 93 83 73 71 70 59 52 48 49 47 45 37 38 34 28 28 22 26 22 13 11 7 1 2 3 10 12 11 11 12 12 12 12 5 9 7 7 7
68 83 92 99 99 95 91 82 79 76 74 64 58 53 53 51 46 45 46 40 35 30 26 30 25 18 14 11 4 1 3 4 10 13 11 11 12 12 13 10 6 9 6 6
73 85 94 98 94 93 90 85 82 79 73 62 59 58 55 53 50 50 49 42 37 30 33 34 28 22 18 14 8 3 1 4 5 10 13 12 11 9 8 10 8 8 6 6
76 87 96 101 95 93 89 85 80 77 73 65 61 60 58 56 55 55 51 43 37 37 40 39 33 28 23 18 12 7 3 1 2 6 9 11 13 13 10 9 8 8 7 7